{"data":{"norad_id":67399,"intl_designator":"2026-004AN","name":"TOMORROW-S11","alt_names":[],"object_type":"PAYLOAD","status":"ACTIVE","operator":null,"country":"US","launch_date":"2026-01-11","launch_site_code":"AFWTR","launch_vehicle":null,"mission":null,"orbit_class":"UNKNOWN","rcs_meters":null,"size_class":null,"mass_kg":null,"dimensions":null,"purposes":[],"wikipedia_slug":null,"has_3d_model":false,"image_url":null,"decayed_at":null,"tle_current":{"epoch":"2026-09-20T22:49:01.556544Z","epoch_age_seconds":61498,"freshness":"FRESH","line1":"1 67399U 26004AN  26263.95071246  .00002719  00000+0  12833-3 0  9997","line2":"2 67399  97.4635 262.1312 0007725  24.3697 335.7902 15.20278611 38316","mean_motion":15.20278611,"eccentricity":0.0007725,"inclination_deg":97.4635,"raan_deg":262.1312,"arg_perigee_deg":24.3697,"mean_anomaly_deg":335.7902,"bstar":0.00012833,"rev_number":3831,"period_min":94.719480336095,"perigee_km":499.6823122717,"apogee_km":510.31675821865,"semimajor_km":6883.1365352452,"source":"CELESTRAK","updated_at":"2026-09-21T09:00:16.621098Z"}}}